Location: Dattensoll
(49.9928°N, 9.8954°E)
Time: 09:55:20
(UTC+00:00)

NOSS 2-1 (C) - Pass Details

Date: 19 May 2025
Orbit: 378 x 1699 km, 63.3° (Epoch: 23 June)

Event Time Altitude Azimuth Distance (km) Brightness Sun altitude
Exits shadow 22:55:32 41° 266° (W) 615 3.5 -19.9°
Maximum altitude 22:56:18 53° 316° (NW) 500 3.3 -19.9°
Drops below altitude 10° 22:59:14 10° 35° (NE) 1,406 6.1 -19.9°
Sets 23:01:13 0° 41° (NE) 2,263 7.2 -19.9°
